Regional Weather Roundup
Issued by NWS

Home | Current Version | Previous Version | Graphics & Text | Print | Product List | Glossary On
Versions: 1 2 3 4 5 6 7 8 9 10 11 12 13 14 15 16 17 18 19 20 21 22 23 24 25 26 27 28 29 30 31 32 33 34 35 36 37 38 39 40 41 42 43 44 45 46 47 48 49 50
000
ASUS43 KLSX 240907
RWRMO

WEATHER SUMMARY FOR MISSOURI
NATIONAL WEATHER SERVICE SPRINGFIELD MO
400 AM CDT THU JUL 24 2014

NOTE: "FAIR" INDICATES FEW OR NO CLOUDS BELOW 12,000 FEET WITH NO
       SIGNIFICANT WEATHER AND/OR OBSTRUCTIONS TO VISIBILITY.
       CURRENT SKY AND/OR WEATHER CONDITIONS ARE NOT AVAILABLE FOR
       CHILLICOTHE AND FARMINGTON.

MOZ001>031-035>038-043-044-053-054-241000-
...NORTHERN AND WESTERN MISSOURI...

CITY           SKY/WX    TMP DP  RH WIND       PRES   REMARKS
KANSAS CTY INT PTCLDY    68  59  73 E8        30.12F
KANSAS C DTWN  CLEAR     69  61  75 E5        30.11S
LEE`S SUMMIT   CLEAR     66  61  84 E6        30.12F
ST JOSEPH      CLEAR     68  60  75 VRB5      30.13F
CHILLICOTHE      N/A     61  58  90 CALM      30.15F
KIRKSVILLE     CLEAR     58  56  93 CALM      30.15S

$$
MOZ066>068-077>081-088>096-101>105-241000-
...SOUTHWEST MISSOURI...

CITY           SKY/WX    TMP DP  RH WIND       PRES   REMARKS
SPRINGFIELD    CLEAR     69  65  86 E6        30.08S
JOPLIN         CLEAR     68  65  90 NE7       30.07S

$$
MOZ032>034-039>042-045>050-055>058-069>072-241000-
...CENTRAL MISSOURI...

CITY           SKY/WX    TMP DP  RH WIND       PRES   REMARKS
COLUMBIA       CLEAR     61  57  87 NE7       30.12S
JEFFERSON CITY CLEAR     64  59  83 CALM      30.10S
ROLLA          CLEAR     62  58  86 NE5       30.09S
SEDALIA        CLEAR     65  60  84 NE3       30.12S
WHITEMAN AFB   CLEAR     62  58  86 NE3       30.11S
OSAGE BEACH    CLEAR     64  59  82 NE3       30.10S

$$
MOZ051-052-059>065-241000-
...EAST CENTRAL MISSOURI...

CITY           SKY/WX    TMP DP  RH WIND       PRES   REMARKS
ST LOUIS INTL  CLEAR     65  52  62 NE6       30.10S
SPIRIT OF STL  CLEAR     58  55  90 CALM      30.10R
ST CHARLES     CLEAR     61  53  75 CALM      30.10R

$$
MOZ072>076-082>087-097>100-106>115-241000-
...SOUTH CENTRAL AND SOUTHEAST MISSOURI...

CITY           SKY/WX    TMP DP  RH WIND       PRES   REMARKS
CAPE GIRARDEAU CLEAR     62  55  77 N5        30.04F
FARMINGTON     CLEAR     61  52  72 CALM      30.10F
POPLAR BLUFF   MOCLDY    67  55  65 N9        30.04S
WEST PLAINS    CLEAR     67  61  81 NE8       30.09S

$$


USA.gov is the U.S. government's official web portal to all federal, state and local government web resources and services.